Regional Weather Roundup
Issued by NWS Kansas City/Pleasant Hill, MO

Home | Current Version | Previous Version | Text Only | Print | Product List | Glossary On
Versions: 1 2 3 4 5 6 7 8 9 10 11 12 13 14 15 16 17 18 19 20 21 22 23 24 25 26 27 28 29 30 31 32 33 34 35 36 37 38 39 40 41 42 43 44 45 46 47 48 49 50
000
ASUS43 KEAX 282210
RWREAX

WEATHER ROUNDUP FOR EASTERN KANSAS AND NORTHWEST MISSOURI
NATIONAL WEATHER SERVICE KANSAS CITY/PLEASANT HILL MO
400 PM CST SUN DEC 28 2014

KSZ040-057-103>105-MOZ028-029-037-043-282300-
...KANSAS CITY METROPOLITAN AREA...

CITY           SKY/WX    TMP DP  RH WIND       PRES   REMARKS
K.C. INTL      MOCLDY    37  18  46 SW5       30.13R WCI  33
K.C. DOWNTOWN  CLEAR     40  16  37 SW5       30.14S
LEES SUMMIT    CLEAR     38  18  44 S7        30.14S WCI  33
OLATHE - IXD   CLEAR     37  20  50 S7        30.14S WCI  32
OLATHE - OJC   CLEAR     37  19  48 S7        30.13S WCI  32
LAWRENCE       PTCLDY    38  21  50 SE6       30.14S WCI  33

$$

MOZ001>008-011>017-020>025-030>033-038>040-044>046-053-054-282300-
...NORTHERN AND CENTRAL MISSOURI...

CITY           SKY/WX    TMP DP  RH WIND       PRES   REMARKS
ST. JOSEPH     CLEAR     37  18  46 S7        30.14S WCI  32
MOSBY          CLEAR     37  19  48 S3        30.14S
WARRENSBURG    CLEAR     36  21  55 S6        30.16S WCI  31
WHITEMAN AFB   FAIR      36  18  48 S5        30.18F WCI  32
CLINTON        CLEAR     37  23  56 CALM      30.18S
SEDALIA        CLEAR     37  19  48 SW3       30.17S
WARSAW         NOT AVBL
MARSHALL       CLEAR     39  21  48 SE5       30.18R
CHILLICOTHE      N/A     41  20  43 CALM      30.17R
MOBERLY        CLEAR     39  12  33 W6        30.17S WCI  35
KIRKSVILLE     CLEAR     37  18  46 SW5       30.16R WCI  33

$$

MOZ041-047>049-056>058-063>065-088>090-097-282300-
...EASTERN AND SOUTHERN MISSOURI...

CITY           SKY/WX    TMP DP  RH WIND       PRES   REMARKS
ST. LOUIS INTL PTCLDY    36  23  59 CALM      30.20F
SPIRIT OF STL  PTCLDY    36  25  64 CALM      30.19F
COLUMBIA       CLEAR     37  23  56 CALM      30.17S
JEFFERSON CITY CLEAR     38  22  52 CALM      30.19S
MEXICO         CLEAR     39  27  60 CALM      30.16F
HANNIBAL       CLEAR     37  18  44 CALM      30.17S
ROLLA          CLEAR     35  24  64 CALM      30.15S
LEBANON        CLEAR     37  23  56 CALM      30.15F
OSAGE BEACH    CLEAR     37  23  56 CALM      30.17S
SPRINGFIELD    CLEAR     38  23  55 NE3       30.14F
NEVADA         CLEAR     37  23  56 SE5       30.18R WCI  34
JOPLIN         SUNNY     38  23  55 CALM      30.17S
WEST PLAINS    PTCLDY    35  26  69 NE5       30.15F WCI  31

$$

IAZ060-094-KSZ022-034>040-054-083-096-NEZ052-066-093-282300-
...KANSAS...SOUTHEAST NEBRASKA AND IOWA...

CITY           SKY/WX    TMP DP  RH WIND       PRES   REMARKS
TOPEKA         MOCLDY    40  20  44 S7        30.13S
MANHATTAN      PTSUNNY   42  19  39 S5        30.10S
EMPORIA        MOSUNNY   38  18  44 S7        30.10F WCI  33
CHANUTE        SUNNY     39  19  44 S6        30.14F WCI  35
WICHITA        SUNNY     42  19  39 S13       30.08F
OMAHA          CLOUDY    33  20  58 SE6       30.13R WCI  28
LINCOLN        PTCLDY    34  19  54 CALM      30.11S
FALLS CITY     CLEAR     40  22  48 S6        30.11S
LAMONI         CLEAR     37  20  50 SW8       30.12S WCI  31
DES MOINES     PTCLDY    36  22  56 W3        30.14S

$$



USA.gov is the U.S. government's official web portal to all federal, state and local government web resources and services.